EHI
2 4 6 6 6 5 4 3 3 2 1 0 1 2 1 0 0 0 0 0 0 0 0 0 0 0 0 1 2 3 2 1 0 1 2 2 3 4 4 5 4 1 0
3 4 6 6 5 4 3 3 3 2 1 0 1 1 1 0 0 0 0 0 0 0 0 0 0 0 0 1 2 3 3 1 1 1 1 1 2 3 4 5 3 1 0
5 5 6 6 5 3 3 3 3 2 1 0 0 0 0 0 0 0 1 1 0 0 0 0 0 0 0 0 1 2 2 2 1 1 0 0 1 1 2 2 1 0 0
6 5 7 7 5 3 3 2 2 1 1 1 1 0 0 0 0 0 1 2 1 0 0 1 1 0 0 0 0 1 1 2 2 1 0 0 0 0 1 0 0 0 0
6 7 8 9 6 3 3 2 2 2 2 2 2 1 0 0 0 0 1 1 1 0 1 2 1 0 0 0 0 0 1 2 3 1 0 0 0 0 0 0 0 0 0
7 8 10 9 6 4 3 2 2 3 3 3 3 1 0 0 0 0 0 0 0 0 1 1 1 0 0 0 0 0 1 2 1 0 0 0 0 0 0 0 0 0 0
6 7 9 9 6 3 2 2 2 3 3 3 3 2 1 0 0 1 0 0 0 1 1 0 0 0 0 0 0 0 1 1 0 0 0 0 0 0 0 0 0 0 0
4 6 8 8 5 2 1 1 2 2 3 3 3 2 1 0 0 0 0 0 0 0 0 0 0 0 0 0 0 1 1 1 0 0 0 0 0 0 0 0 0 0 0
4 5 6 5 3 1 0 0 1 2 2 2 1 1 0 0 0 0 0 0 0 0 0 0 0 0 0 0 0 1 1 1 0 0 0 0 0 0 0 0 0 0 0
4 4 5 4 2 1 0 0 1 1 1 1 0 0 0 0 0 0 0 0 0 0 0 0 0 0 0 0 0 0 0 0 0 0 0 0 0 0 0 0 0 0 0
3 3 4 4 3 2 1 0 0 0 0 0 0 0 0 0 0 0 0 0 0 0 0 0 0 0 0 0 0 0 0 0 0 0 0 0 0 0 0 0 0 0 0
3 3 3 3 3 3 2 1 0 0 0 0 0 0 0 0 0 0 0 0 0 0 0 0 0 0 0 0 0 0 0 0 0 0 0 0 0 0 0 0 0 0 0
3 3 3 2 2 3 3 2 2 1 1 0 0 0 0 0 0 0 0 0 0 0 0 0 0 0 0 0 0 0 0 0 0 0 0 1 1 1 1 0 0 1 1
3 4 4 2 2 3 3 3 3 3 1 0 0 0 0 0 0 0 0 0 0 0 0 0 0 0 0 0 0 0 0 0 0 0 0 0 1 1 2 1 1 2 2
3 5 5 4 2 3 3 4 4 3 1 0 0 0 0 0 0 0 0 0 0 0 0 0 0 0 0 0 0 0 0 0 0 0 0 0 0 1 1 2 2 2 2
2 4 5 4 3 3 4 4 4 3 1 0 0 0 0 0 0 0 0 0 0 0 0 0 0 0 0 0 0 0 0 0 0 0 0 0 0 0 0 1 1 1 1
1 2 3 3 3 3 4 4 4 3 3 2 0 0 0 0 0 0 0 0 0 0 0 0 0 0 0 0 0 0 0 0 0 0 0 0 0 0 0 0 0 0 0
1 2 2 2 2 3 4 4 4 4 4 3 1 0 0 0 0 0 0 0 0 0 0 0 0 0 0 0 0 0 0 0 0 0 0 0 0 0 0 0 0 0 0
1 3 3 1 1 3 3 4 4 3 3 3 2 1 0 0 0 0 0 0 0 0 0 0 0 0 0 0 0 0 0 0 0 0 0 0 0 0 0 0 0 0 0
2 4 4 2 2 3 3 3 3 2 1 2 2 1 0 0 0 0 0 0 0 0 0 0 0 0 0 0 0 0 0 0 0 0 0 0 0 0 0 0 0 0 0
4 4 4 4 3 3 3 2 2 1 0 1 2 2 1 0 0 0 0 0 0 0 0 0 0 0 0 0 0 0 0 0 0 0 0 0 0 0 0 0 0 0 0
5 4 4 5 6 4 2 1 1 0 0 1 3 3 1 0 0 0 0 0 0 0 0 0 0 0 0 0 0 0 0 0 0 0 0 0 0 0 0 0 0 0 0
7 5 4 6 7 6 2 1 1 1 1 3 4 4 3 1 0 0 0 1 1 0 0 0 1 1 1 0 0 0 0 0 0 0 0 0 0 0 0 0 0 0 0
7 6 5 6 7 7 4 3 3 3 3 3 4 4 5 4 2 1 1 2 1 0 0 0 1 2 2 1 0 0 0 0 0 0 0 0 0 0 0 0 0 0 0
6 5 5 7 8 8 6 5 5 5 5 4 3 4 6 7 5 3 3 2 1 0 0 0 1 2 3 1 0 0 0 0 0 0 0 0 0 0 0 0 0 0 0
4 4 6 8 10 10 7 6 5 5 5 4 3 4 5 7 6 4 3 2 1 0 0 0 1 2 3 2 1 0 0 0 0 0 0 0 0 0 0 0 0 0 0
Wind_Speed
7 10 9 9 9 8 8 9 9 8 8 8 8 9 9 9 8 8 8 8 7 7 7 7 7 7 8 8 8 8 8 8 8 8 8 8 9 8 8 8 7 6 8
10 11 10 9 8 8 8 8 8 8 8 8 8 8 8 8 8 7 7 8 7 7 7 7 7 7 7 8 8 7 7 7 6 6 6 7 8 8 8 8 9 6 8
10 11 10 9 8 8 8 8 8 8 8 8 8 8 8 8 8 7 7 7 7 6 6 7 7 7 7 7 7 7 6 6 5 4 4 4 6 9 9 9 9 8 8
10 10 9 9 9 8 8 8 8 8 8 8 8 8 8 7 7 7 7 7 7 7 7 7 7 7 7 7 7 6 5 5 5 4 4 5 5 9 9 9 9 8 8
10 11 10 9 9 8 7 8 8 8 8 8 8 8 7 7 7 7 7 7 7 7 7 7 7 7 7 7 6 6 5 5 5 5 5 5 5 8 9 9 8 8 7
10 10 9 9 8 8 7 7 7 7 7 7 7 7 7 7 7 7 7 8 8 8 8 8 7 8 8 8 7 6 5 5 5 4 5 5 5 8 9 9 9 8 8
8 9 9 9 8 8 7 7 7 7 7 7 7 7 7 7 7 7 7 7 7 8 8 8 8 9 9 8 7 6 5 5 3 4 5 5 6 9 10 9 9 9 8
7 8 9 10 9 8 8 7 7 6 6 6 6 6 6 6 6 6 6 7 7 8 8 8 8 9 9 8 7 6 6 6 5 7 6 5 9 10 10 10 9 9 9
6 6 7 8 8 9 9 8 7 7 6 5 5 5 5 5 5 6 6 7 8 8 8 8 8 9 8 7 6 6 7 7 5 4 7 5 10 10 10 10 10 10 10
4 4 5 6 7 7 7 8 8 7 6 5 4 4 4 5 5 6 7 7 8 8 8 8 8 8 8 6 5 4 5 5 5 6 4 6 11 11 11 10 10 10 10
4 3 4 4 5 6 6 8 8 7 6 6 5 5 3 2 4 5 8 8 8 8 8 8 8 7 6 4 4 4 4 3 5 5 5 9 11 11 11 11 10 10 10
4 3 4 4 5 4 4 5 4 4 4 3 3 3 2 2 3 6 8 8 8 8 7 6 6 5 3 2 3 3 3 5 5 5 6 12 11 11 11 11 11 10 10
4 3 3 3 4 4 3 3 2 2 2 1 2 3 3 3 3 4 3 4 4 4 2 3 3 1 2 3 3 4 5 5 4 5 7 12 12 12 11 11 11 10 11
4 3 3 3 3 4 3 3 2 2 1 1 1 3 2 2 2 2 2 3 2 1 1 2 1 3 4 5 5 6 6 4 5 4 6 12 12 12 12 12 11 11 11
3 3 3 3 3 3 3 2 3 2 2 2 1 2 3 2 2 2 2 2 2 2 2 2 3 5 5 5 6 7 6 6 6 5 5 13 14 13 12 12 12 12 12
4 4 3 3 3 3 2 2 2 3 2 2 2 2 3 2 2 2 3 2 2 2 2 3 4 4 4 4 5 6 6 5 5 5 5 8 14 14 14 14 14 13 13
4 4 3 3 3 3 2 2 3 2 2 2 2 2 2 2 3 3 3 3 2 3 3 3 4 3 4 5 5 6 5 5 5 5 5 4 6 12 15 15 15 15 15
4 4 3 3 3 3 3 2 2 2 3 2 2 2 2 3 4 4 3 2 3 3 3 3 3 3 4 4 4 4 4 4 5 5 4 4 4 5 9 14 15 15 15
3 4 4 4 3 3 3 3 2 2 3 2 2 1 2 3 4 4 3 2 4 3 3 3 3 4 4 4 4 4 3 4 4 5 5 5 5 5 5 9 13 14 14
3 3 3 4 4 4 3 3 2 2 2 2 2 2 2 2 4 4 3 3 4 3 3 3 4 3 3 3 4 4 4 3 3 4 4 4 4 5 5 5 5 8 14
3 2 2 3 3 3 2 2 2 1 1 2 2 2 2 3 4 4 3 4 4 3 3 4 3 4 3 3 4 3 3 3 3 3 3 3 4 4 4 4 4 4 6
3 1 2 3 3 3 2 2 2 2 2 2 2 2 1 2 3 4 4 3 4 3 3 4 3 2 1 1 2 2 2 2 3 3 3 3 3 3 4 5 5 5 5
2 1 2 2 3 3 3 1 1 2 2 2 2 1 1 2 3 3 3 3 4 4 3 3 3 3 1 0 1 2 2 2 1 2 2 3 3 3 3 3 5 5 6
2 1 2 2 2 3 2 2 2 2 2 2 2 2 2 2 3 3 3 3 3 3 3 4 3 2 2 1 0 1 1 3 3 1 2 2 3 3 3 4 5 6 6
3 1 1 2 2 3 3 2 2 2 1 2 2 3 3 2 2 3 3 3 3 3 3 3 3 2 2 2 1 1 2 1 2 3 2 1 2 2 3 3 4 4 5
3 2 1 2 2 2 2 2 2 2 2 2 2 3 2 2 2 3 3 3 3 3 3 3 3 3 2 2 1 2 2 1 2 2 3 2 2 1 3 3 3 4 4
Wind_Direction
98 98 87 81 79 77 76 74 76 76 75 74 72 72 73 76 75 74 75 76 74 72 72 72 75 77 75 72 70 68 68 67 72 79 82 79 76 71 65 55 56 72 71
103 102 89 83 81 80 79 76 77 76 76 78 75 73 73 77 78 78 80 80 76 75 75 75 76 78 76 74 72 70 68 66 66 73 84 86 79 74 68 60 58 64 63
101 106 95 84 82 82 80 79 79 77 79 79 78 76 78 78 79 78 79 81 76 77 79 79 78 79 77 74 71 68 64 56 49 50 77 87 79 71 68 67 64 61 58
97 98 95 91 85 82 81 83 80 78 80 80 82 80 80 81 79 77 78 79 78 79 80 82 84 84 82 78 72 65 54 36 27 40 62 71 71 72 69 67 62 61 62
96 100 101 99 92 87 85 87 85 83 82 82 82 80 80 81 81 79 79 81 82 83 85 87 86 84 83 79 72 58 40 23 32 47 65 75 75 73 72 67 64 63 64
102 105 110 109 102 97 95 92 89 86 83 81 81 80 79 80 83 84 82 83 85 85 86 86 88 84 80 74 64 49 30 25 45 62 63 70 77 75 73 67 65 63 62
102 112 119 123 118 114 108 100 92 89 86 84 84 83 82 83 84 85 84 86 85 87 88 86 88 89 83 72 59 47 39 21 63 79 74 71 76 79 74 67 64 61 60
105 115 126 136 133 129 121 112 102 99 97 92 90 89 90 90 89 88 88 90 91 91 93 91 92 92 89 80 68 54 37 25 65 75 74 70 79 77 72 67 63 62 62
108 122 136 142 141 138 134 128 121 114 112 109 105 104 108 109 106 103 97 94 95 97 98 97 98 97 92 84 73 58 41 33 43 58 73 71 76 74 72 68 64 61 60
107 113 124 141 144 143 141 140 137 134 134 136 135 133 132 133 129 120 108 103 104 104 106 104 105 105 101 93 81 62 45 37 57 61 60 73 76 75 72 69 67 62 60
107 106 117 121 126 134 143 145 151 153 157 157 162 169 164 147 135 123 113 115 114 114 116 117 119 120 117 108 88 64 54 66 68 65 59 73 76 74 71 70 67 64 62
123 115 109 115 118 123 123 134 151 152 159 175 159 160 156 117 107 111 119 120 120 121 128 135 139 143 139 124 100 82 62 63 64 67 65 73 74 74 71 70 69 65 64
102 97 99 114 122 117 112 115 111 113 136 149 124 136 120 107 114 118 128 130 126 133 137 136 149 138 114 90 83 79 71 62 59 61 62 70 73 74 74 74 71 66 63
102 102 92 90 105 112 111 114 124 120 118 128 125 113 107 106 104 114 124 124 123 125 100 101 100 82 75 78 81 81 76 76 72 66 60 69 73 75 75 73 70 68 68
118 114 106 103 92 104 113 131 131 122 127 124 102 107 114 117 120 122 117 114 122 119 102 74 76 72 66 63 69 75 76 78 82 76 66 68 71 73 73 72 67 67 69
137 131 121 107 99 103 107 132 124 124 130 122 112 103 115 118 121 118 104 102 99 102 98 89 84 80 76 70 67 68 74 76 80 90 90 72 68 68 68 68 64 65 69
126 118 116 124 110 104 102 102 110 121 118 116 110 98 100 109 106 98 102 101 99 98 91 83 83 80 86 81 71 63 63 68 78 81 90 92 77 69 70 68 65 65 67
122 124 123 112 108 110 112 100 97 113 106 106 101 98 107 106 96 94 93 95 93 91 84 83 85 79 75 76 74 68 64 62 69 76 83 87 88 84 75 74 69 65 65
109 113 118 116 126 113 110 101 79 91 105 106 98 90 84 105 106 106 105 104 96 91 89 94 82 88 86 81 83 75 67 63 60 67 73 81 83 92 89 81 73 67 64
83 93 118 118 119 114 108 104 87 73 92 97 96 102 89 82 97 101 108 102 99 92 82 84 89 89 96 98 90 79 73 75 66 59 64 67 73 83 87 88 80 68 65
92 96 110 106 109 113 116 121 127 124 108 97 78 84 99 102 107 106 104 104 103 110 119 112 105 105 103 107 94 76 58 64 76 73 69 67 68 75 78 81 84 77 67
94 108 126 118 117 120 130 145 149 142 134 119 105 90 108 113 113 120 118 115 115 116 113 111 118 116 132 137 121 119 92 42 29 65 73 76 71 69 72 77 78 78 77
98 91 97 108 106 112 126 113 121 104 99 101 119 123 138 115 116 117 125 131 133 129 131 134 141 141 157 211 89 120 137 138 89 30 69 81 81 71 67 70 75 77 77
117 114 99 101 108 111 121 124 129 128 143 160 157 151 146 125 120 122 123 124 133 135 145 161 155 152 141 157 38 47 103 136 136 117 23 59 90 85 77 77 74 75 78
112 102 101 95 99 113 122 134 132 135 162 164 154 148 146 144 137 138 141 138 132 138 156 158 145 154 158 161 150 111 71 93 123 131 136 98 61 65 83 83 81 81 77
114 100 92 102 101 112 134 152 155 169 181 153 150 151 152 153 153 154 155 160 159 159 162 160 159 163 163 157 156 150 155 152 148 138 137 138 112 87 81 89 94 94 85